Location: Croisilles
(50.1998°N, 2.8793°E)
Time: 02:06:18
(UTC+00:00)

CZ-3B R/B - Pass Details

Date: 21 January 2021
Orbit: 277 x 17419 km, 54.8° (Epoch: 24 February)

Event Time Altitude Azimuth Distance (km) Brightness Sun altitude
Rises 19:01:30 0° 294° (WNW) 2,188 5.9 -24.8°
Reaches altitude 10° 19:02:48 10° 288° (WNW) 1,562 5.0 -25.0°
Maximum altitude 19:05:42 55° 209° (SSW) 870 2.8 -25.5°
Enters shadow 19:07:40 36° 152° (SSE) 1,497 3.7 -25.8°
